Terug naar catalogus

SL-8 R/B

ActiefLEO
NORAD 12443·ROCKET BODY·🇷🇺 Russia

Gelanceerd May 7, 1981 vanaf Plesetsk Cosmodrome

Loading…

Volgende Passages (komende 24 uur)

TLE

VersSource: Space-Track

Epoch: Sep 14, 2026, 13:03 UTC

1 12443U 81041B   26257.54395603  .00000107  00000-0  45814-4 0  9999
2 12443  74.0519 105.0442 0003260  91.2195 268.9331 14.36103335372076

Volg SL-8 R/B in realtime met AllMySat

Download on the App Store